Find Starlink 32905

NORAD ID: 62923 Int'l Des: 2025-027 Owner: SPXS Country: US Constellation: starlink operational
LEOCIRCULAR

当前视图

正在加载3D地球...

About Starlink 32905

Starlink 32905 (NORAD 62923) is a starlink constellation satellite (v2 mini) launched Feb 8, 2025 by SPXS of US. It operates in LEO, CIRCULAR orbit with a mass of 730.00 kg.

即将过境

Passes for default location (London). Set your location on the main map for personalized predictions.

高度历史

Loading altitude history...

两行轨道根数

1 62923U 25027S 26263.95798376 .00015607 00000-0 57533-3 0 9996
2 62923 43.0036 106.3067 0001971 257.9086 102.1545 15.27588564 91401
Epoch: Sep 20, 2026 • Age: 21 hours

当前状态

高度 487.3 km
远地点 / 近地点 N/A
速度 7.63 km/s
星下点 42.44°N, 118.21°W
发射日期 Feb 8, 2025
运行时间 1.6 years
类型 internet

技术详情

分类 Payload
质量 730.00 kg
干质量 700.00 kg
长度 0.30 m
跨度 29.00 m
形状 ? Box + pan
制造商 SPXS
平台类型 Starlink V2M
阶段状态 In Orbit
所有者/国家 SPXS/US

Most Searched